User: anonymous   Login
Location: Unspecified
(0.0000°N, 0.0000°E)
Time: 22:53:01
(UTC+02:00)
Language:

SJ-6B - Orbit

View from above orbital plane
View from above orbital plane
View from above satellite
View from above satellite

Ground track
Ground track

The orbit data is extracted from the following two-line orbital elements,

1 28415U 04035C   17202.03473422 +.00000717 +00000-0 +51984-4 0  9995
2 28415 097.7440 231.3655 0052456 008.0850 352.1210 15.06225807703674
Epoch (UTC): 21 July 2017 00:50:01
Eccentricity: 0.0052456
inclination: 97.7440°
perigee height: 511 km
apogee height: 584 km
right ascension of ascending node: 231.3655°
argument of perigee: 8.0850°
revolutions per day: 15.06225807
mean anomaly at epoch: 352.1210°
orbit number at epoch: 70367

The dashed part of the orbit path shows where the satellite is in the earth's shadow,  

DLR